{"data":{"norad_id":63436,"intl_designator":"2025-069D","name":"STARLINK-33638","alt_names":[],"object_type":"PAYLOAD","status":"ACTIVE","operator":null,"country":"US","launch_date":"2025-04-04","launch_site_code":"AFWTR","launch_vehicle":null,"mission":null,"orbit_class":"UNKNOWN","rcs_meters":null,"size_class":null,"mass_kg":null,"dimensions":null,"purposes":["comms"],"wikipedia_slug":null,"has_3d_model":false,"image_url":null,"decayed_at":null,"tle_current":{"epoch":"2026-09-20T09:55:13.316448Z","epoch_age_seconds":166373,"freshness":"FRESH","line1":"1 63436U 25069D   26263.41334857  .00014285  00000+0  43303-3 0  9993","line2":"2 63436  53.1582 308.3455 0000700  73.1223 286.9857 15.34406226 83358","mean_motion":15.34406226,"eccentricity":7.0e-5,"inclination_deg":53.1582,"raan_deg":308.3455,"arg_perigee_deg":73.1223,"mean_anomaly_deg":286.9857,"bstar":0.00043303,"rev_number":8335,"period_min":93.847377285081,"perigee_km":462.20587776414,"apogee_km":463.16359280708,"semimajor_km":6840.8217352856,"source":"CELESTRAK","updated_at":"2026-09-21T09:00:34.984324Z"}}}